Location: Plainartige
(45.6866°N, 1.7993°E)
Time: 04:41:27
(UTC+00:00)

NOAA 15 - Pass Details

Date: 29 June 2022
Orbit: 796 x 813 km, 98.6° (Epoch: 16 August)

Event Time Altitude Azimuth Distance (km) Brightness Sun altitude
Rises 20:12:50 0° 214° (SW) 3,316 7.7 -4.5°
Reaches altitude 10° 20:16:14 10° 237° (WSW) 2,394 7.3 -4.9°
Maximum altitude 20:19:11 15° 271° (W) 2,069 7.5 -5.3°
Drops below altitude 10° 20:22:10 10° 306° (NW) 2,407 8.9 -5.7°
Sets 20:25:37 0° 329° (NNW) 3,346 9.6 -6.2°
